Location: Newark
(38.0892°N, 27.7378°E)
Time: 19:07:34
(UTC+00:00)

N. Korean satellite - Pass Details

Date: 17 December 2019
Orbit: 454 x 507 km, 97.2° (Epoch: 28 January)

Event Time Altitude Azimuth Distance (km) Brightness Sun altitude
Rises 03:36:37 0° 19° (NNE) 2,509 10.2 -19.5°
Reaches altitude 10° 03:38:46 10° 26° (NNE) 1,620 9.3 -19.1°
Maximum altitude 03:42:05 41° 99° (E) 675 7.8 -18.4°
Drops below altitude 10° 03:45:19 10° 171° (S) 1,590 9.5 -17.8°
Sets 03:47:25 0° 178° (S) 2,455 10.4 -17.4°
